GJS4432 KEWR-KDCA

Flight info

Callsign GJS4432
Flight time N/A
Altitude 20000
Route BIGGY Q75 MXE CLIPR3
Aircraft CRJ7/M-SDFGIRWY/S

Departure

Time N/A
Airport Newark Liberty International Airport (KEWR)

Arrival

Time 2026-04-22 22:12
Airport Ronald Reagan Washington National Airport (KDCA)
Time Latitude Longitude Altitude Speed Heading
2026-04-22 21:49 39.74798 -75.99747 20019 ft 394 kts 240°
2026-04-22 21:50 39.73255 -76.02689 20021 ft 393 kts 240°
2026-04-22 21:50 39.71729 -76.05597 19852 ft 389 kts 240°
2026-04-22 21:50 39.70187 -76.08525 19333 ft 395 kts 240°
2026-04-22 21:50 39.68637 -76.11480 18823 ft 395 kts 240°
2026-04-22 21:51 39.67081 -76.14424 18308 ft 396 kts 240°
2026-04-22 21:51 39.65539 -76.17330 17721 ft 385 kts 240°
2026-04-22 21:51 39.64051 -76.20156 17161 ft 375 kts 240°
2026-04-22 21:52 39.61185 -76.25583 16133 ft 358 kts 240°
2026-04-22 21:52 39.59784 -76.28243 15641 ft 359 kts 240°
2026-04-22 21:52 39.58138 -76.30712 15131 ft 368 kts 225°
2026-04-22 21:52 39.56079 -76.32691 14662 ft 366 kts 218°
2026-04-22 21:53 39.53947 -76.34458 14186 ft 362 kts 216°
2026-04-22 21:53 39.51818 -76.36190 13708 ft 370 kts 216°
2026-04-22 21:53 39.49604 -76.38023 13158 ft 375 kts 217°
2026-04-22 21:53 39.47457 -76.39858 12645 ft 371 kts 218°
2026-04-22 21:54 39.45342 -76.41684 12123 ft 360 kts 218°
2026-04-22 21:54 39.43314 -76.43439 11957 ft 341 kts 218°
2026-04-22 21:54 39.41387 -76.45110 11807 ft 326 kts 218°
2026-04-22 21:54 39.39549 -76.46707 11660 ft 312 kts 218°
2026-04-22 21:55 39.37776 -76.48242 11512 ft 301 kts 219°
2026-04-22 21:55 39.36062 -76.49727 11397 ft 295 kts 219°
2026-04-22 21:55 39.34335 -76.51223 11261 ft 302 kts 218°
2026-04-22 21:55 39.33150 -76.52248 11179 ft 305 kts 218°
2026-04-22 21:56 39.31434 -76.53731 11072 ft 300 kts 218°
2026-04-22 21:56 39.29727 -76.55202 10937 ft 289 kts 218°
2026-04-22 21:56 39.28037 -76.56665 10817 ft 301 kts 218°
2026-04-22 21:56 39.26294 -76.58169 10679 ft 300 kts 218°
2026-04-22 21:57 39.24596 -76.59628 10553 ft 288 kts 218°
2026-04-22 21:57 39.22957 -76.61039 10436 ft 279 kts 218°
2026-04-22 21:57 39.21369 -76.62412 10320 ft 270 kts 219°
2026-04-22 21:57 39.19829 -76.63746 10203 ft 263 kts 219°
2026-04-22 21:58 39.18342 -76.65024 10181 ft 253 kts 219°
2026-04-22 21:58 39.16911 -76.66284 10162 ft 248 kts 223°
2026-04-22 21:58 39.15561 -76.67784 10177 ft 265 kts 228°
2026-04-22 21:58 39.14198 -76.69498 10192 ft 282 kts 229°
2026-04-22 21:59 39.12781 -76.71278 10152 ft 288 kts 228°
2026-04-22 21:59 39.11365 -76.72988 10195 ft 279 kts 227°
2026-04-22 21:59 39.09934 -76.74693 10223 ft 281 kts 227°
2026-04-22 21:59 39.08483 -76.76418 10165 ft 286 kts 227°
2026-04-22 22:00 39.07030 -76.78139 10191 ft 287 kts 227°
2026-04-22 22:00 39.05558 -76.79883 10200 ft 288 kts 227°
2026-04-22 22:00 39.04080 -76.81624 10195 ft 288 kts 227°
2026-04-22 22:00 39.02611 -76.83357 10196 ft 286 kts 227°
2026-04-22 22:01 39.01147 -76.85089 10226 ft 285 kts 227°
2026-04-22 22:01 38.99681 -76.86830 10166 ft 287 kts 226°
2026-04-22 22:01 38.98227 -76.88584 10171 ft 284 kts 231°
2026-04-22 22:01 38.97341 -76.90758 10168 ft 273 kts 261°
2026-04-22 22:02 38.97178 -76.93166 10180 ft 269 kts 272°
2026-04-22 22:02 38.97242 -76.95538 10180 ft 267 kts 275°
2026-04-22 22:02 38.97373 -76.97921 10179 ft 269 kts 276°
2026-04-22 22:02 38.97523 -77.00353 10175 ft 275 kts 277°
2026-04-22 22:03 38.98040 -77.02604 10168 ft 261 kts 303°
2026-04-22 22:03 38.99114 -77.04412 10176 ft 248 kts 309°
2026-04-22 22:03 39.00268 -77.06041 9879 ft 249 kts 314°
2026-04-22 22:03 39.01548 -77.07579 9388 ft 256 kts 316°
2026-04-22 22:04 39.02885 -77.09120 8892 ft 259 kts 316°
2026-04-22 22:04 39.04220 -77.10690 8397 ft 258 kts 316°
2026-04-22 22:04 39.05101 -77.11746 8076 ft 254 kts 315°
2026-04-22 22:04 39.06759 -77.13791 7451 ft 245 kts 314°
2026-04-22 22:05 39.07577 -77.14820 7144 ft 242 kts 314°
2026-04-22 22:05 39.08760 -77.16307 6701 ft 236 kts 314°
2026-04-22 22:05 39.09926 -77.17763 6291 ft 231 kts 314°
2026-04-22 22:05 39.11050 -77.19169 5867 ft 226 kts 315°
2026-04-22 22:06 39.11921 -77.20807 5430 ft 219 kts 284°
2026-04-22 22:06 39.11746 -77.22719 5075 ft 232 kts 245°
2026-04-22 22:06 39.10584 -77.24160 4998 ft 234 kts 215°
2026-04-22 22:06 39.09191 -77.25182 5002 ft 232 kts 212°
2026-04-22 22:07 39.07667 -77.26127 4822 ft 258 kts 199°
2026-04-22 22:07 39.05831 -77.26116 4552 ft 268 kts 163°
2026-04-22 22:07 39.04280 -77.24920 4276 ft 259 kts 142°
2026-04-22 22:07 39.02886 -77.23414 4000 ft 262 kts 139°
2026-04-22 22:08 39.01550 -77.21840 3738 ft 258 kts 138°
2026-04-22 22:08 39.00249 -77.20268 3442 ft 255 kts 137°
2026-04-22 22:08 38.98976 -77.18689 3148 ft 253 kts 137°
2026-04-22 22:08 38.97724 -77.17108 2823 ft 251 kts 137°
2026-04-22 22:09 38.96499 -77.15540 2554 ft 249 kts 137°
2026-04-22 22:09 38.95268 -77.14017 2257 ft 238 kts 139°
2026-04-22 22:09 38.94104 -77.12669 2120 ft 210 kts 139°
2026-04-22 22:09 38.93049 -77.11514 1900 ft 191 kts 147°
2026-04-22 22:10 38.91995 -77.10633 1665 ft 175 kts 149°
2026-04-22 22:10 38.91038 -77.09851 1460 ft 154 kts 136°
2026-04-22 22:10 38.90674 -77.08629 1270 ft 146 kts 104°
2026-04-22 22:10 38.90304 -77.07408 1177 ft 145 kts 112°
2026-04-22 22:11 38.89726 -77.06447 1005 ft 134 kts 143°
2026-04-22 22:11 38.89016 -77.05655 833 ft 135 kts 140°
2026-04-22 22:11 38.88332 -77.04855 597 ft 130 kts 139°
2026-04-22 22:11 38.87647 -77.04146 401 ft 123 kts 156°
2026-04-22 22:12 38.86821 -77.03943 181 ft 122 kts 175°
2026-04-22 22:12 38.85973 -77.03861 49 ft 121 kts 173°
2026-04-22 22:12 38.85217 -77.03782 22 ft 87 kts 174°
2026-04-22 22:12 38.84804 -77.03741 22 ft 26 kts 177°
2026-04-22 22:13 38.84629 -77.03725 22 ft 25 kts 175°
2026-04-22 22:13 38.84453 -77.03709 22 ft 26 kts 187°
2026-04-22 22:13 38.84386 -77.03822 23 ft 10 kts 276°
2026-04-22 22:13 38.84399 -77.03857 24 ft 2 kts 323°
2026-04-22 22:14 38.84494 -77.03861 23 ft 18 kts
2026-04-22 22:14 38.84622 -77.03862 25 ft 19 kts 357°
2026-04-22 22:14 38.84738 -77.03898 22 ft 10 kts 298°
2026-04-22 22:14 38.84767 -77.03941 22 ft 3 kts 351°
2026-04-22 22:15 38.84798 -77.03943 22 ft 6 kts 360°
2026-04-22 22:15 38.84852 -77.03943 22 ft 10 kts 360°
2026-04-22 22:15 38.84927 -77.03952 22 ft 11 kts 353°
2026-04-22 22:15 38.84946 -77.03966 24 ft 0 kts 283°